Retour au catalogue

STARLINK-32848

ActifCommunicationsVLEO
NORAD 62808·PAYLOAD·🇺🇸 United States

Lancé Jan 24, 2025 depuis Vandenberg Space Force Base

Loading…

Prochains Passages (prochaines 24 heures)

TLE

FraisSource: CelesTrak SupGP

Époque: Sep 15, 2026, 02:04 UTC

1 62808C 25018C   26258.08659722  .00000746  00000+0  23988-4 0  2580
2 62808  53.1565 148.3343 0001227  81.9907  60.0537 15.31699575    16

Suivez STARLINK-32848 en temps réel avec AllMySat

Download on the App Store